Simultaneous Nadir Overpasses (SNOs) Predictions

Prediction of SNOs between METOP-C and LANDSAT-8 Satellite Orbit:

Table of predicted SNOs for the next 14.0 days since TLE Epoch: 11/16/2019
Index Date (METOP-C) Time (METOP-C) Lat,Lon (METOP-C) SZA (METOP-C ) Date (LANDSAT-8) Time (LANDSAT-8) Lat,Lon (LANDSAT-8) SZA (LANDSAT-8 ) Distance(km) Time Diff (sec)
1 11/17/2019 08:01:32 81.15, 99.60 102.41 11/17/2019 08:02:39 81.14, 99.54 102.43 1.20 67
2 11/17/2019 08:52:10 -81.18, -92.10 77.46 11/17/2019 08:52:04 -81.18, -92.15 77.47 1.02 6
3 11/20/2019 03:35:52 81.15, 166.12 103.07 11/20/2019 03:36:52 81.15, 166.13 103.10 0.18 60
4 11/20/2019 04:26:31 -81.17, -25.97 76.85 11/20/2019 04:26:18 -81.17, -25.90 76.85 1.26 13
5 11/22/2019 23:10:13 81.15,-127.36 103.68 11/22/2019 23:11:06 81.16,-127.31 103.71 0.81 53
6 11/23/2019 00:00:52 -81.17, 40.53 76.24 11/23/2019 00:00:32 -81.18, 40.68 76.23 2.70 20
7 11/25/2019 18:44:34 81.16, -60.83 104.25 11/25/2019 18:45:20 81.16, -60.79 104.27 0.89 46
8 11/25/2019 19:35:12 -81.19, 107.41 75.64 11/25/2019 19:34:46 -81.19, 107.23 75.67 3.20 26
9 11/28/2019 14:18:54 81.16, 5.69 104.75 11/28/2019 14:19:33 81.17, 5.70 104.77 0.43 39




NCC Satellite Simultaneous Nadir Overpasses (SNOs) Prediction Service
